CZ-3C DEB, 42477

Orbit data source: Space-Track

CZ-3C DEB, 42477 is space debris in HEO originally from a launch on Fri, 24 Feb 2012 UTC launched from the Xichang Space Center, China (XSC). Debris objects in space refer to the collection of defunct objects orbiting the Earth. Examples of debris include non-operational satellites, rocket bodies, and fragments generated from explosions, collisions, or faulty payload assembly.

Loading next visibility...
Identifier
42477, 2012-008AM
Orbit
HEO
Country
Flag of CNCN / PRC
Related business
Manufacturer
CALT
Mission
Spacecraft
Bus & Motor
Unknown
Mass
Unknown
Launch date (UTC)
2012-02-24 (14 years ago)
Launch vehicle
Unknown
Launch site
Xichang Space Center, China (XSC)
Object type
Payload
Rocket body
Debris
Shape & HBR
Unknown shape, 0.2 m
Radar Cross Section
Medium (>0.1 m² and <1 m²)

Expand to show TLE details & history
Last TLE update: 20 hours ago

TLE from 20 hours ago
0 CZ-3C DEB
1 42477U 12008AM  26124.44641548  .00001069  00000-0  29416-2 0  9996
2 42477  19.9505  46.6435 6901046 113.8104 329.6306  2.67176889104757
Epoch: 2026-05-04T10:42Z
TLE epoch observation values (Epoch: 2026-05-04T10:42:50.297Z)
Latitude
0.00004°
Longitude
23.52124°
Altitude
9,593.716 km
Speed
5.634 km/s
True Right ascension
03h 06m 15s
True Declination
0° 00' 00"
Sunlit
Object was in daylight at epoch
Visualization orbit readout
Latitude
Unknown
Longitude
Unknown
Altitude
Unknown
Speed
Unknown
Apparent Right ascension
Unknown
Apparent Declination
Unknown
Sunlit
N/A
Visualization observer readout
Local Sidereal Time
14:06:44
Azimuth
Unknown
Elevation
Unknown
Doppler factor
Unknown
Orbital elements
Apogee altitude
30,707.263 km
Perigee altitude
421.794 km
Semi-major axis
21,942.666 km
Eccentricity
0.6901
Inclination
19.9505°
RAAN
46.6435°
Arg. of periapsis
113.8104°
True anomaly
246.12006°
Mean anomaly
329.6306°
Eccentric anomaly
293.32085°
Mean motion
0.66774 °/min
Orbital period
539.13 mins
BSTAR
0.0029416
Loading maneuver chart data...
Computing Atmospheric mass density...
Loading historical data...
Loading historical data...
Loading historical data...
Loading historical data...
Loading historical data...
Loading historical data...
Loading historical data...

Documentation

Showing up to 5 results
|